Regional Weather Roundup
Issued by NWS Newport/Morehead, NC

Current Version | Previous Version | Graphics & Text | Print | Product List | Glossary Off
Versions: 1 2 3 4 5 6 7 8 9 10 11 12 13 14 15 16 17 18 19 20 21 22 23 24 25 26 27 28 29 30 31 32 33 34 35 36 37 38 39 40 41 42 43 44 45 46 47 48 49 50

000
ASUS42 KMHX 260813
RWRMHX
WEATHER ROUNDUP FOR EASTERN NORTH CAROLINA
NATIONAL WEATHER SERVICE NEWPORT/MOREHEAD CITY NC
400 AM EDT TUE MAY 26 2015

NOTE: "FAIR" INDICATES FEW OR NO CLOUDS BELOW 12,000 FEET
WITH NO SIGNIFICANT WEATHER AND/OR OBSTRUCTIONS TO VISIBILITY

NCZ015>017-031-032-045>047-102-103-260900-
NORTH COAST

CITY           SKY/WX    TMP DP  RH WIND       PRES   REMARKS
EDENTON        CLEAR     67  63  85 S5        30.28S
ELIZABETH CITY CLEAR     63  61  93 S5        30.29R
KITTY HAWK     SUNNY     70  62  76 SW5       30.28S
MANTEO         CLEAR     71  63  76 SW12      30.29S

$$

NCZ045>047-081-094-103-104-260900-
CENTRAL COAST

CITY           SKY/WX    TMP DP  RH WIND       PRES   REMARKS
FRISCO         PTCLDY    72  62  71 S13       30.29S
SWANQUARTER      N/A     72 N/A N/A S13       30.27R

$$

NCZ095-097-098-100-101-260900-
SOUTHERN COAST

CITY           SKY/WX    TMP DP  RH WIND       PRES   REMARKS
BEAUFORT       CLEAR     72  63  73 S8        30.28S
CEDAR ISLAND     N/A     70 N/A N/A SE3G9     30.33S
JACKSONVILLE   PTCLDY    63  61  93 CALM      30.27S
PINEY ISLAND   SUNNY    N/A N/A N/A S5        30.28S
WILMINGTON     CLEAR     65  61  87 CALM      30.26S


$$

NCZ011>013-027>030-043-044-078>080-089-090>093-098-260900-
COASTAL PLAIN

CITY           SKY/WX    TMP DP  RH WIND       PRES   REMARKS
AHOSKIE        CLEAR     60  59  96 CALM      30.28
CLINTON        CLEAR     63  63  99 CALM      30.28S
ELIZABETHTOWN  CLEAR     64  64  97 CALM      30.26S
GOLDSBORO      NOT AVBL
GREENVILLE     CLEAR     63  61  94 CALM      30.29S
HAVELOCK       PTCLDY    64  60  87 CALM      30.29S
KENANSVILLE    CLEAR     58  57  95 CALM      30.28F
KINSTON        PTCLDY    61  60  96 CALM      30.28F
NEW BERN       MOCLDY    62  58  86 CALM      30.29S
RICHLANDS      PTCLDY    57  54  88 CALM      30.28F
ROCKY MOUNT    CLEAR     63  60  90 CALM      30.27F
WASHINGTON     CLEAR     66  62  87 CALM      30.28S
WHITEVILLE     CLEAR     63  61  94 CALM      30.25F

$$

AMZ130-135-150-152-154-156-158-170-250-252-270-ANZ085-086-088-633-658-670-260900-
MARINE OBSERVATIONS

STATION/POSITION TIME  TEMP    WIND        PRES    WAVE   SWELL
                       AIR SEA DIR/SP/G            HT/PER HT/PER
                 (UTC) (F)     (DEG/KT/KT) (MB)    (FT/S) (FT/S)
CHESAPEAKE LIGHT 0800   67     200/ 16/ 16 1025.6
64 E VA BEACH    0750   65 63  180/  8/ 10 1025.3    1/ 6   2/ 6
DUCK             0700   71 61  200/  9/ 12 1024.5
2 E DUCK         0711      63                N/A     1/ 8
OREGON INLET     0700   73 75  190/ 13/ 18 1025.7
13E OREGON INLT  0800      65                N/A     2/ 4
HATTERAS CG      0700   74 75  180/  6/ 10 1025.2
DIAMOND BUOY     0750   75 77  170/ 16/ 17 1025.6    3/ 5   2/ 7
CAPE LOOKOUT     0800   74     170/ 11/ 12 1025.1
BEAUFORT LAB     0700   73 75  170/ 11/ 14 1024.5
27 SE WRIGHTSVLE 0700   72 76  160/ 12/ 14   N/A
5 SE WRIGHTSVLE  0708   75 76  170/ 14/ 17 1024.6
225 S CAPE HAT   0750   73 74  130/ 14/ 16 1025.8    4/ 7   2/ 7
41 SE CHARLESTON 0750   78 75  160/ 10/ 12 1022.8    4/ 6   3/ 6

$$



USA.gov is the U.S. government's official web portal to all federal, state and local government web resources and services.